Time,TemperatureF,DewpointF,PressureIn,WindDirection,WindDirectionDegrees,WindSpeedMPH,WindSpeedGustMPH,Humidity,HourlyPrecipIn,Conditions,Clouds,dailyrainin,SoftwareType,DateUTC
2014-03-20 00:07:00,46.6,42.9,29.77,SSW,210,7.0,14.0,87,0.00,,,0.00,Wunderground v.1.15,2014-03-20 00:07:00,
2014-03-20 00:12:00,46.6,42.9,29.76,WSW,240,7.0,11.0,87,0.00,,,0.00,Wunderground v.1.15,2014-03-20 00:12:00,
2014-03-20 00:22:00,46.6,42.9,29.77,SW,228,7.0,7.0,87,0.00,,,0.00,Wunderground v.1.15,2014-03-20 00:22:00,
2014-03-20 00:27:00,46.6,42.9,29.76,West,274,7.0,12.0,87,0.00,,,0.00,Wunderground v.1.15,2014-03-20 00:27:00,
2014-03-20 00:37:00,46.6,42.9,29.76,SSW,197,8.0,8.0,87,0.00,,,0.00,Wunderground v.1.15,2014-03-20 00:37:00,
2014-03-20 00:42:00,46.7,42.7,29.76,WSW,245,8.0,8.0,86,0.00,,,0.00,Wunderground v.1.15,2014-03-20 00:42:00,
2014-03-20 00:52:00,46.7,42.7,29.75,South,179,8.0,8.0,86,0.00,,,0.00,Wunderground v.1.15,2014-03-20 00:52:00,
2014-03-20 01:07:00,46.8,42.5,29.74,SSW,204,8.0,8.0,85,0.00,,,0.00,Wunderground v.1.15,2014-03-20 01:07:00,
2014-03-20 01:12:00,46.8,42.5,29.73,WNW,292,10.0,11.0,85,0.00,,,0.00,Wunderground v.1.15,2014-03-20 01:12:00,
2014-03-20 01:22:00,46.9,42.6,29.73,SW,214,7.0,7.0,85,0.00,,,0.00,Wunderground v.1.15,2014-03-20 01:22:00,
2014-03-20 01:27:00,46.9,42.6,29.72,SW,233,7.0,11.0,85,0.00,,,0.00,Wunderground v.1.15,2014-03-20 01:27:00,
2014-03-20 01:42:00,47.1,42.5,29.71,SW,226,8.0,8.0,84,0.00,,,0.00,Wunderground v.1.15,2014-03-20 01:42:00,
2014-03-20 01:47:00,47.1,42.5,29.72,SW,233,9.0,9.0,84,0.00,,,0.00,Wunderground v.1.15,2014-03-20 01:47:00,
2014-03-20 01:52:00,47.1,42.5,29.71,ESE,113,9.0,14.0,84,0.00,,,0.00,Wunderground v.1.15,2014-03-20 01:52:00,
2014-03-20 01:57:00,47.1,42.8,29.71,SW,224,8.0,14.0,85,0.00,,,0.00,Wunderground v.1.15,2014-03-20 01:57:00,
2014-03-20 02:06:00,47.1,42.8,29.69,South,188,7.0,9.0,85,0.00,,,0.00,Wunderground v.1.15,2014-03-20 02:06:00,
2014-03-20 02:11:00,47.1,42.5,29.70,WNW,284,8.0,11.0,84,0.00,,,0.00,Wunderground v.1.15,2014-03-20 02:11:00,
2014-03-20 02:17:00,47.1,42.5,29.69,SW,226,9.0,11.0,84,0.00,,,0.00,Wunderground v.1.15,2014-03-20 02:17:00,
2014-03-20 02:27:00,47.2,42.6,29.69,WSW,243,7.0,12.0,84,0.00,,,0.00,Wunderground v.1.15,2014-03-20 02:27:00,
2014-03-20 02:31:00,47.2,42.6,29.68,WNW,294,7.0,7.0,84,0.00,,,0.00,Wunderground v.1.15,2014-03-20 02:31:00,
2014-03-20 02:36:00,47.2,42.6,29.67,SSW,197,8.0,15.0,84,0.00,,,0.00,Wunderground v.1.15,2014-03-20 02:36:00,
2014-03-20 02:42:00,47.3,42.4,29.68,SW,226,7.0,8.0,83,0.00,,,0.00,Wunderground v.1.15,2014-03-20 02:42:00,
2014-03-20 02:52:00,47.4,42.5,29.67,SSW,203,7.0,7.0,83,0.00,,,0.00,Wunderground v.1.15,2014-03-20 02:52:00,
2014-03-20 02:57:00,47.5,42.6,29.67,WNW,285,5.0,7.0,83,0.00,,,0.00,Wunderground v.1.15,2014-03-20 02:57:00,
2014-03-20 03:07:00,47.3,42.7,29.66,SE,141,5.0,5.0,84,0.00,,,0.00,Wunderground v.1.15,2014-03-20 03:07:00,
2014-03-20 03:12:00,47.3,42.7,29.66,WSW,240,6.0,7.0,84,0.00,,,0.00,Wunderground v.1.15,2014-03-20 03:12:00,
2014-03-20 03:17:00,47.3,42.7,29.66,West,272,6.0,7.0,84,0.00,,,0.00,Wunderground v.1.15,2014-03-20 03:17:00,
2014-03-20 03:22:00,47.3,42.4,29.65,SW,226,6.0,10.0,83,0.00,,,0.00,Wunderground v.1.15,2014-03-20 03:22:00,
2014-03-20 03:27:00,47.4,42.5,29.65,WSW,239,7.0,10.0,83,0.00,,,0.00,Wunderground v.1.15,2014-03-20 03:27:00,
2014-03-20 03:37:00,47.3,42.7,29.65,SW,221,7.0,10.0,84,0.00,,,0.00,Wunderground v.1.15,2014-03-20 03:37:00,
2014-03-20 03:47:00,47.2,42.6,29.64,WSW,242,6.0,7.0,84,0.00,,,0.00,Wunderground v.1.15,2014-03-20 03:47:00,
2014-03-20 03:52:00,47.1,42.5,29.63,WSW,251,6.0,6.0,84,0.00,,,0.00,Wunderground v.1.15,2014-03-20 03:52:00,
2014-03-20 03:57:00,47.0,42.4,29.64,WSW,238,8.0,8.0,84,0.00,,,0.00,Wunderground v.1.15,2014-03-20 03:57:00,
2014-03-20 04:02:00,47.1,42.5,29.64,SSW,210,8.0,8.0,84,0.00,,,0.00,Wunderground v.1.15,2014-03-20 04:02:00,
2014-03-20 04:07:00,47.1,42.5,29.63,West,269,6.0,8.0,84,0.00,,,0.00,Wunderground v.1.15,2014-03-20 04:07:00,
2014-03-20 04:12:00,47.1,42.5,29.63,WSW,250,5.0,5.0,84,0.00,,,0.00,Wunderground v.1.15,2014-03-20 04:12:00,
2014-03-20 04:22:00,47.2,42.9,29.62,SW,214,6.0,9.0,85,0.00,,,0.00,Wunderground v.1.15,2014-03-20 04:22:00,
2014-03-20 04:27:00,47.1,42.8,29.62,SW,232,7.0,15.0,85,0.00,,,0.00,Wunderground v.1.15,2014-03-20 04:27:00,
2014-03-20 04:32:00,47.1,42.8,29.61,West,267,8.0,9.0,85,0.00,,,0.00,Wunderground v.1.15,2014-03-20 04:32:00,
2014-03-20 04:37:00,47.1,42.8,29.62,West,274,8.0,13.0,85,0.00,,,0.00,Wunderground v.1.15,2014-03-20 04:37:00,
2014-03-20 04:42:00,47.1,42.8,29.61,SW,231,8.0,10.0,85,0.00,,,0.00,Wunderground v.1.15,2014-03-20 04:42:00,
2014-03-20 04:47:00,47.1,42.8,29.61,WSW,238,8.0,10.0,85,0.00,,,0.00,Wunderground v.1.15,2014-03-20 04:47:00,
2014-03-20 04:57:00,47.1,42.8,29.61,WSW,238,8.0,8.0,85,0.00,,,0.00,Wunderground v.1.15,2014-03-20 04:57:00,
2014-03-20 05:06:00,47.1,42.8,29.60,WNW,288,8.0,18.0,85,0.00,,,0.00,Wunderground v.1.15,2014-03-20 05:06:00,
2014-03-20 05:11:00,47.1,42.8,29.61,South,186,9.0,9.0,85,0.00,,,0.00,Wunderground v.1.15,2014-03-20 05:11:00,
2014-03-20 05:17:00,47.0,43.0,29.60,SW,224,9.0,9.0,86,0.00,,,0.00,Wunderground v.1.15,2014-03-20 05:17:00,
2014-03-20 05:26:00,47.1,43.1,29.59,NNW,337,9.0,21.0,86,0.00,,,0.00,Wunderground v.1.15,2014-03-20 05:26:00,
2014-03-20 05:36:00,47.1,42.8,29.59,NNW,334,9.0,10.0,85,0.00,,,0.00,Wunderground v.1.15,2014-03-20 05:36:00,
2014-03-20 05:41:00,47.2,42.9,29.60,WNW,285,9.0,13.0,85,0.00,,,0.00,Wunderground v.1.15,2014-03-20 05:41:00,
2014-03-20 05:47:00,47.2,42.9,29.59,WSW,252,10.0,13.0,85,0.00,,,0.00,Wunderground v.1.15,2014-03-20 05:47:00,
2014-03-20 05:56:00,47.1,42.8,29.58,WSW,256,8.0,9.0,85,0.00,,,0.00,Wunderground v.1.15,2014-03-20 05:56:00,
2014-03-20 06:06:00,47.0,43.0,29.58,SSW,193,9.0,22.0,86,0.00,,,0.00,Wunderground v.1.15,2014-03-20 06:06:00,
2014-03-20 06:11:00,47.0,43.0,29.59,SW,218,10.0,10.0,86,0.00,,,0.00,Wunderground v.1.15,2014-03-20 06:11:00,
2014-03-20 06:21:00,46.9,42.9,29.57,WSW,245,9.0,10.0,86,0.00,,,0.00,Wunderground v.1.15,2014-03-20 06:21:00,
2014-03-20 06:27:00,46.9,42.9,29.57,WSW,246,8.0,16.0,86,0.00,,,0.00,Wunderground v.1.15,2014-03-20 06:27:00,
2014-03-20 06:36:00,47.1,42.8,29.56,West,273,10.0,14.0,85,0.00,,,0.00,Wunderground v.1.15,2014-03-20 06:36:00,
2014-03-20 06:42:00,47.1,42.8,29.55,SW,225,9.0,10.0,85,0.00,,,0.00,Wunderground v.1.15,2014-03-20 06:42:00,
2014-03-20 06:47:00,47.1,42.8,29.55,SSW,205,9.0,10.0,85,0.00,,,0.00,Wunderground v.1.15,2014-03-20 06:47:00,
2014-03-20 06:52:00,47.1,42.8,29.56,SW,236,10.0,18.0,85,0.00,,,0.00,Wunderground v.1.15,2014-03-20 06:52:00,
2014-03-20 06:57:00,47.1,42.8,29.55,SW,218,10.0,18.0,85,0.00,,,0.00,Wunderground v.1.15,2014-03-20 06:57:00,
2014-03-20 07:07:00,47.2,42.9,29.53,West,278,9.0,9.0,85,0.00,,,0.00,Wunderground v.1.15,2014-03-20 07:07:00,
2014-03-20 07:12:00,47.2,42.9,29.53,NW,308,8.0,9.0,85,0.00,,,0.00,Wunderground v.1.15,2014-03-20 07:12:00,
2014-03-20 07:22:00,47.2,42.9,29.52,West,269,9.0,13.0,85,0.00,,,0.00,Wunderground v.1.15,2014-03-20 07:22:00,
2014-03-20 07:27:00,47.3,43.0,29.52,WSW,242,9.0,13.0,85,0.00,,,0.00,Wunderground v.1.15,2014-03-20 07:27:00,
2014-03-20 07:37:00,47.3,43.0,29.52,WSW,245,9.0,10.0,85,0.00,,,0.00,Wunderground v.1.15,2014-03-20 07:37:00,
2014-03-20 07:47:00,47.4,43.1,29.50,West,262,9.0,10.0,85,0.00,,,0.00,Wunderground v.1.15,2014-03-20 07:47:00,
2014-03-20 07:52:00,47.5,43.2,29.50,SW,231,8.0,11.0,85,0.00,,,0.00,Wunderground v.1.15,2014-03-20 07:52:00,
2014-03-20 08:02:00,47.5,43.2,29.50,SW,224,10.0,11.0,85,0.00,,,0.00,Wunderground v.1.15,2014-03-20 08:02:00,
2014-03-20 08:12:00,47.7,43.1,29.48,West,270,11.0,11.0,84,0.00,,,0.00,Wunderground v.1.15,2014-03-20 08:12:00,
2014-03-20 08:17:00,47.7,43.1,29.48,WSW,245,10.0,14.0,84,0.00,,,0.00,Wunderground v.1.15,2014-03-20 08:17:00,
2014-03-20 08:27:00,47.7,43.1,29.49,West,270,11.0,14.0,84,0.00,,,0.00,Wunderground v.1.15,2014-03-20 08:27:00,
2014-03-20 08:37:00,47.7,43.1,29.47,West,267,10.0,14.0,84,0.00,,,0.00,Wunderground v.1.15,2014-03-20 08:37:00,
2014-03-20 08:42:00,47.7,43.1,29.47,WNW,292,10.0,10.0,84,0.00,,,0.00,Wunderground v.1.15,2014-03-20 08:42:00,
2014-03-20 08:52:00,47.9,43.0,29.46,West,263,8.0,12.0,83,0.00,,,0.00,Wunderground v.1.15,2014-03-20 08:52:00,
2014-03-20 08:57:00,48.0,43.1,29.45,SW,233,8.0,12.0,83,0.00,,,0.00,Wunderground v.1.15,2014-03-20 08:57:00,
2014-03-20 09:02:00,48.1,42.9,29.45,WSW,240,10.0,10.0,82,0.00,,,0.00,Wunderground v.1.15,2014-03-20 09:02:00,
2014-03-20 09:11:00,48.3,43.1,29.44,WSW,248,9.0,10.0,82,0.00,,,0.00,Wunderground v.1.15,2014-03-20 09:11:00,
2014-03-20 09:17:00,48.3,43.1,29.43,West,279,9.0,12.0,82,0.00,,,0.00,Wunderground v.1.15,2014-03-20 09:17:00,
2014-03-20 09:22:00,48.4,43.2,29.44,NW,305,9.0,9.0,82,0.00,,,0.00,Wunderground v.1.15,2014-03-20 09:22:00,
2014-03-20 09:32:00,48.7,43.1,29.43,West,271,10.0,10.0,81,0.00,,,0.00,Wunderground v.1.15,2014-03-20 09:32:00,
2014-03-20 09:42:00,48.9,43.0,29.42,WSW,257,11.0,11.0,80,0.00,,,0.00,Wunderground v.1.15,2014-03-20 09:42:00,
2014-03-20 09:52:00,49.1,43.2,29.42,WSW,242,10.0,10.0,80,0.00,,,0.00,Wunderground v.1.15,2014-03-20 09:52:00,
2014-03-20 09:57:00,48.9,43.3,29.41,West,267,9.0,10.0,81,0.00,,,0.00,Wunderground v.1.15,2014-03-20 09:57:00,
2014-03-20 10:07:00,48.9,43.3,29.41,SW,215,9.0,20.0,81,0.00,,,0.00,Wunderground v.1.15,2014-03-20 10:07:00,
2014-03-20 10:17:00,48.7,43.5,29.41,WNW,284,7.0,14.0,82,0.00,,,0.00,Wunderground v.1.15,2014-03-20 10:17:00,
2014-03-20 10:22:00,48.7,43.5,29.40,SSE,149,7.0,7.0,82,0.00,,,0.00,Wunderground v.1.15,2014-03-20 10:22:00,
2014-03-20 10:27:00,48.5,43.6,29.40,SW,228,6.0,7.0,83,0.00,,,0.00,Wunderground v.1.15,2014-03-20 10:27:00,
2014-03-20 10:37:00,48.5,43.3,29.39,SW,221,5.0,6.0,82,0.00,,,0.00,Wunderground v.1.15,2014-03-20 10:37:00,
2014-03-20 10:47:00,47.3,43.3,29.39,SW,214,5.0,7.0,86,0.11,,,0.02,Wunderground v.1.15,2014-03-20 10:47:00,
2014-03-20 10:57:00,46.8,43.1,29.40,SSW,200,5.0,5.0,87,0.28,,,0.05,Wunderground v.1.15,2014-03-20 10:57:00,
2014-03-20 11:02:00,46.6,42.9,29.40,SW,233,6.0,7.0,87,0.19,,,0.06,Wunderground v.1.15,2014-03-20 11:02:00,
2014-03-20 11:07:00,46.4,42.4,29.39,SW,218,7.0,9.0,86,0.16,,,0.06,Wunderground v.1.15,2014-03-20 11:07:00,
2014-03-20 11:17:00,46.3,42.0,29.38,SW,233,5.0,8.0,85,0.17,,,0.09,Wunderground v.1.15,2014-03-20 11:17:00,
2014-03-20 11:26:00,46.2,41.9,29.38,WSW,246,5.0,7.0,85,0.13,,,0.10,Wunderground v.1.15,2014-03-20 11:26:00,
2014-03-20 11:32:00,46.2,41.6,29.38,NNW,337,5.0,7.0,84,0.12,,,0.11,Wunderground v.1.15,2014-03-20 11:32:00,
2014-03-20 11:37:00,46.0,41.4,29.37,West,271,5.0,7.0,84,0.17,,,0.13,Wunderground v.1.15,2014-03-20 11:37:00,
2014-03-20 11:47:00,46.0,40.5,29.37,West,269,6.0,7.0,81,0.22,,,0.15,Wunderground v.1.15,2014-03-20 11:47:00,
2014-03-20 11:56:00,45.9,40.4,29.37,SSW,197,5.0,6.0,81,0.27,,,0.18,Wunderground v.1.15,2014-03-20 11:56:00,
2014-03-20 12:02:00,46.0,41.1,29.37,West,281,8.0,8.0,83,0.23,,,0.20,Wunderground v.1.15,2014-03-20 12:02:00,
2014-03-20 12:07:00,46.1,41.2,29.36,WSW,247,8.0,11.0,83,0.21,,,0.21,Wunderground v.1.15,2014-03-20 12:07:00,
2014-03-20 12:17:00,46.1,41.2,29.36,SW,231,8.0,12.0,83,0.23,,,0.24,Wunderground v.1.15,2014-03-20 12:17:00,
2014-03-20 12:22:00,46.1,41.2,29.36,West,266,7.0,8.0,83,0.21,,,0.26,Wunderground v.1.15,2014-03-20 12:22:00,
2014-03-20 12:27:00,46.2,41.3,29.35,SSW,205,8.0,8.0,83,0.23,,,0.28,Wunderground v.1.15,2014-03-20 12:27:00,
2014-03-20 12:37:00,46.4,41.5,29.35,WSW,245,8.0,15.0,83,0.44,,,0.31,Wunderground v.1.15,2014-03-20 12:37:00,
2014-03-20 12:42:00,46.3,41.1,29.34,SW,228,8.0,8.0,82,0.37,,,0.34,Wunderground v.1.15,2014-03-20 12:42:00,
2014-03-20 12:52:00,46.5,41.6,29.34,WSW,257,8.0,14.0,83,0.41,,,0.38,Wunderground v.1.15,2014-03-20 12:52:00,
2014-03-20 12:57:00,46.5,41.6,29.33,SW,231,8.0,14.0,83,0.36,,,0.40,Wunderground v.1.15,2014-03-20 12:57:00,
2014-03-20 13:07:00,46.5,41.6,29.33,WSW,245,8.0,8.0,83,0.26,,,0.44,Wunderground v.1.15,2014-03-20 13:07:00,
2014-03-20 13:12:00,46.5,41.9,29.33,West,266,9.0,9.0,84,0.29,,,0.46,Wunderground v.1.15,2014-03-20 13:12:00,
2014-03-20 13:22:00,46.7,42.4,29.32,SW,221,8.0,10.0,85,0.14,,,0.47,Wunderground v.1.15,2014-03-20 13:22:00,
2014-03-20 13:27:00,46.6,42.0,29.33,WSW,253,7.0,10.0,84,0.20,,,0.49,Wunderground v.1.15,2014-03-20 13:27:00,
2014-03-20 13:37:00,45.5,41.9,29.33,WSW,245,9.0,19.0,87,0.14,,,0.50,Wunderground v.1.15,2014-03-20 13:37:00,
2014-03-20 13:42:00,44.8,41.2,29.33,South,186,9.0,9.0,87,0.11,,,0.51,Wunderground v.1.15,2014-03-20 13:42:00,
2014-03-20 13:52:00,44.3,40.1,29.32,West,269,5.0,5.0,85,0.05,,,0.52,Wunderground v.1.15,2014-03-20 13:52:00,
2014-03-20 13:57:00,44.4,39.9,29.32,WSW,250,5.0,5.0,84,0.05,,,0.52,Wunderground v.1.15,2014-03-20 13:57:00,
2014-03-20 14:07:00,44.5,40.0,29.33,SW,236,5.0,5.0,84,0.08,,,0.53,Wunderground v.1.15,2014-03-20 14:07:00,
2014-03-20 14:17:00,44.4,39.9,29.33,WSW,245,5.0,7.0,84,0.09,,,0.54,Wunderground v.1.15,2014-03-20 14:17:00,
2014-03-20 14:21:00,44.5,40.0,29.33,WSW,255,6.0,7.0,84,0.09,,,0.55,Wunderground v.1.15,2014-03-20 14:21:00,
2014-03-20 14:26:00,44.4,40.5,29.33,WSW,247,7.0,7.0,86,0.09,,,0.55,Wunderground v.1.15,2014-03-20 14:26:00,
2014-03-20 14:32:00,44.2,40.0,29.33,WSW,238,8.0,8.0,85,0.15,,,0.57,Wunderground v.1.15,2014-03-20 14:32:00,
2014-03-20 14:36:00,44.1,39.9,29.33,WSW,253,8.0,13.0,85,0.13,,,0.57,Wunderground v.1.15,2014-03-20 14:36:00,
2014-03-20 14:41:00,44.0,39.8,29.33,SW,222,7.0,7.0,85,0.14,,,0.58,Wunderground v.1.15,2014-03-20 14:41:00,
2014-03-20 14:51:00,43.7,39.5,29.33,SW,225,7.0,7.0,85,0.14,,,0.60,Wunderground v.1.15,2014-03-20 14:51:00,
2014-03-20 14:57:00,43.4,39.5,29.33,WSW,248,8.0,13.0,86,0.14,,,0.61,Wunderground v.1.15,2014-03-20 14:57:00,
2014-03-20 15:02:00,43.1,39.2,29.33,SW,214,9.0,9.0,86,0.08,,,0.61,Wunderground v.1.15,2014-03-20 15:02:00,
2014-03-20 15:07:00,42.8,38.9,29.33,West,278,8.0,9.0,86,0.08,,,0.61,Wunderground v.1.15,2014-03-20 15:07:00,
2014-03-20 15:11:00,42.5,38.6,29.34,WSW,245,8.0,8.0,86,0.10,,,0.62,Wunderground v.1.15,2014-03-20 15:11:00,
2014-03-20 15:22:00,42.2,38.3,29.34,SSW,208,8.0,8.0,86,0.08,,,0.64,Wunderground v.1.15,2014-03-20 15:22:00,
2014-03-20 15:31:00,42.4,38.2,29.34,SW,236,8.0,8.0,85,0.06,,,0.64,Wunderground v.1.15,2014-03-20 15:31:00,
2014-03-20 15:36:00,42.6,38.4,29.34,WSW,242,8.0,8.0,85,0.04,,,0.64,Wunderground v.1.15,2014-03-20 15:36:00,
2014-03-20 15:41:00,42.8,38.9,29.33,WSW,256,8.0,9.0,86,0.00,,,0.64,Wunderground v.1.15,2014-03-20 15:41:00,
2014-03-20 15:51:00,43.1,39.2,29.34,WSW,243,7.0,10.0,86,0.00,,,0.64,Wunderground v.1.15,2014-03-20 15:51:00,
2014-03-20 15:57:00,43.3,39.7,29.34,SW,236,6.0,10.0,87,0.00,,,0.64,Wunderground v.1.15,2014-03-20 15:57:00,
2014-03-20 16:07:00,43.5,40.2,29.35,WSW,248,5.0,12.0,88,0.00,,,0.64,Wunderground v.1.15,2014-03-20 16:07:00,
2014-03-20 16:12:00,43.5,39.9,29.34,South,181,7.0,7.0,87,0.00,,,0.64,Wunderground v.1.15,2014-03-20 16:12:00,
2014-03-20 16:22:00,43.7,40.4,29.34,SW,215,6.0,6.0,88,0.00,,,0.64,Wunderground v.1.15,2014-03-20 16:22:00,
2014-03-20 16:32:00,43.7,40.4,29.34,West,269,5.0,6.0,88,0.00,,,0.64,Wunderground v.1.15,2014-03-20 16:32:00,
2014-03-20 16:37:00,43.6,40.0,29.34,West,269,5.0,6.0,87,0.00,,,0.64,Wunderground v.1.15,2014-03-20 16:37:00,
2014-03-20 16:47:00,43.7,40.1,29.34,SW,232,6.0,8.0,87,0.00,,,0.64,Wunderground v.1.15,2014-03-20 16:47:00,
2014-03-20 16:52:00,43.7,40.1,29.34,WSW,249,7.0,9.0,87,0.00,,,0.64,Wunderground v.1.15,2014-03-20 16:52:00,
2014-03-20 16:57:00,43.7,40.1,29.34,WSW,248,7.0,9.0,87,0.00,,,0.64,Wunderground v.1.15,2014-03-20 16:57:00,
2014-03-20 17:07:00,43.3,39.7,29.35,West,266,6.0,6.0,87,0.00,,,0.64,Wunderground v.1.15,2014-03-20 17:07:00,
2014-03-20 17:12:00,43.0,39.4,29.36,West,263,6.0,8.0,87,0.00,,,0.65,Wunderground v.1.15,2014-03-20 17:12:00,
2014-03-20 17:22:00,42.5,38.6,29.36,SW,214,5.0,5.0,86,0.07,,,0.65,Wunderground v.1.15,2014-03-20 17:22:00,
2014-03-20 17:27:00,43.1,38.6,29.36,WNW,290,2.0,5.0,84,0.05,,,0.65,Wunderground v.1.15,2014-03-20 17:27:00,
2014-03-20 17:31:00,43.2,39.6,29.36,WNW,290,3.0,6.0,87,0.00,,,0.65,Wunderground v.1.15,2014-03-20 17:31:00,
2014-03-20 17:37:00,42.9,39.3,29.36,WSW,257,4.0,6.0,87,0.00,,,0.65,Wunderground v.1.15,2014-03-20 17:37:00,
2014-03-20 17:42:00,42.8,39.5,29.35,West,260,5.0,5.0,88,0.00,,,0.65,Wunderground v.1.15,2014-03-20 17:42:00,
2014-03-20 17:47:00,42.7,39.4,29.35,SW,219,5.0,9.0,88,0.00,,,0.65,Wunderground v.1.15,2014-03-20 17:47:00,
2014-03-20 17:52:00,42.5,38.6,29.36,ESE,106,5.0,5.0,86,0.00,,,0.65,Wunderground v.1.15,2014-03-20 17:52:00,
2014-03-20 17:57:00,42.5,38.6,29.36,West,274,6.0,6.0,86,0.00,,,0.65,Wunderground v.1.15,2014-03-20 17:57:00,
2014-03-20 18:07:00,42.3,38.1,29.37,SW,231,5.0,7.0,85,0.00,,,0.65,Wunderground v.1.15,2014-03-20 18:07:00,
2014-03-20 18:12:00,42.3,38.1,29.37,WSW,248,5.0,5.0,85,0.00,,,0.65,Wunderground v.1.15,2014-03-20 18:12:00,
2014-03-20 18:22:00,42.4,38.5,29.38,SW,226,6.0,6.0,86,0.00,,,0.65,Wunderground v.1.15,2014-03-20 18:22:00,
2014-03-20 18:27:00,42.2,38.3,29.38,WSW,250,5.0,6.0,86,0.00,,,0.65,Wunderground v.1.15,2014-03-20 18:27:00,
2014-03-20 18:37:00,41.9,38.3,29.38,WSW,253,4.0,6.0,87,0.00,,,0.65,Wunderground v.1.15,2014-03-20 18:37:00,
2014-03-20 18:47:00,42.2,38.3,29.38,WSW,245,5.0,8.0,86,0.00,,,0.65,Wunderground v.1.15,2014-03-20 18:47:00,
2014-03-20 18:52:00,42.4,38.5,29.38,SW,233,6.0,6.0,86,0.00,,,0.65,Wunderground v.1.15,2014-03-20 18:52:00,
2014-03-20 18:56:00,42.5,38.6,29.38,SW,228,6.0,6.0,86,0.00,,,0.65,Wunderground v.1.15,2014-03-20 18:56:00,
2014-03-20 19:06:00,42.8,38.9,29.38,SW,225,5.0,6.0,86,0.00,,,0.65,Wunderground v.1.15,2014-03-20 19:06:00,
2014-03-20 19:11:00,42.8,38.9,29.38,SW,233,5.0,6.0,86,0.00,,,0.65,Wunderground v.1.15,2014-03-20 19:11:00,
2014-03-20 19:22:00,43.1,38.6,29.38,WSW,240,6.0,6.0,84,0.00,,,0.65,Wunderground v.1.15,2014-03-20 19:22:00,
2014-03-20 19:27:00,43.4,38.3,29.39,West,262,7.0,7.0,82,0.00,,,0.65,Wunderground v.1.15,2014-03-20 19:27:00,
2014-03-20 19:37:00,43.9,38.8,29.39,West,260,7.0,8.0,82,0.00,,,0.65,Wunderground v.1.15,2014-03-20 19:37:00,
2014-03-20 19:42:00,44.0,38.5,29.39,WSW,250,7.0,7.0,81,0.00,,,0.65,Wunderground v.1.15,2014-03-20 19:42:00,
2014-03-20 19:52:00,44.3,38.5,29.39,WNW,298,6.0,6.0,80,0.00,,,0.65,Wunderground v.1.15,2014-03-20 19:52:00,
2014-03-20 20:01:00,44.2,38.1,29.39,WSW,243,6.0,6.0,79,0.00,,,0.65,Wunderground v.1.15,2014-03-20 20:01:00,
2014-03-20 20:06:00,44.2,38.1,29.39,SW,224,7.0,7.0,79,0.00,,,0.65,Wunderground v.1.15,2014-03-20 20:06:00,
2014-03-20 20:11:00,44.1,38.3,29.39,WSW,256,6.0,8.0,80,0.00,,,0.65,Wunderground v.1.15,2014-03-20 20:11:00,
2014-03-20 20:17:00,44.2,38.1,29.39,WSW,245,7.0,8.0,79,0.00,,,0.65,Wunderground v.1.15,2014-03-20 20:17:00,
2014-03-20 20:21:00,44.3,38.2,29.39,SW,231,7.0,7.0,79,0.00,,,0.65,Wunderground v.1.15,2014-03-20 20:21:00,
2014-03-20 20:31:00,44.4,38.0,29.38,NW,323,8.0,8.0,78,0.00,,,0.65,Wunderground v.1.15,2014-03-20 20:31:00,
2014-03-20 20:42:00,43.8,39.0,29.39,SSW,196,10.0,10.0,83,0.00,,,0.65,Wunderground v.1.15,2014-03-20 20:42:00,
2014-03-20 20:52:00,42.7,37.6,29.40,West,277,10.0,10.0,82,0.00,,,0.65,Wunderground v.1.15,2014-03-20 20:52:00,
2014-03-20 20:57:00,42.6,37.2,29.40,WSW,243,8.0,10.0,81,0.00,,,0.65,Wunderground v.1.15,2014-03-20 20:57:00,
2014-03-20 21:07:00,42.8,38.0,29.41,West,264,8.0,11.0,83,0.00,,,0.65,Wunderground v.1.15,2014-03-20 21:07:00,
2014-03-20 21:16:00,42.7,38.2,29.42,WSW,242,7.0,10.0,84,0.00,,,0.65,Wunderground v.1.15,2014-03-20 21:16:00,
2014-03-20 21:21:00,42.3,38.4,29.42,WSW,257,7.0,7.0,86,0.00,,,0.65,Wunderground v.1.15,2014-03-20 21:21:00,
2014-03-20 21:26:00,42.3,38.1,29.42,WSW,257,8.0,10.0,85,0.00,,,0.65,Wunderground v.1.15,2014-03-20 21:26:00,
2014-03-20 21:36:00,42.3,36.9,29.43,WSW,238,8.0,10.0,81,0.00,,,0.65,Wunderground v.1.15,2014-03-20 21:36:00,
2014-03-20 21:41:00,42.3,36.6,29.43,SW,236,8.0,10.0,80,0.00,,,0.65,Wunderground v.1.15,2014-03-20 21:41:00,
2014-03-20 21:51:00,42.1,36.1,29.43,SW,218,7.0,12.0,79,0.00,,,0.65,Wunderground v.1.15,2014-03-20 21:51:00,
2014-03-20 21:56:00,42.0,35.6,29.43,West,260,7.0,12.0,78,0.00,,,0.65,Wunderground v.1.15,2014-03-20 21:56:00,
2014-03-20 22:06:00,41.8,35.4,29.44,WSW,240,8.0,11.0,78,0.00,,,0.65,Wunderground v.1.15,2014-03-20 22:06:00,
2014-03-20 22:12:00,41.7,35.7,29.44,West,274,7.0,7.0,79,0.00,,,0.65,Wunderground v.1.15,2014-03-20 22:12:00,
2014-03-20 22:22:00,41.7,35.7,29.44,SW,218,7.0,7.0,79,0.00,,,0.65,Wunderground v.1.15,2014-03-20 22:22:00,
2014-03-20 22:27:00,41.7,35.7,29.44,NW,312,7.0,7.0,79,0.00,,,0.65,Wunderground v.1.15,2014-03-20 22:27:00,
2014-03-20 22:32:00,41.7,35.7,29.44,West,259,7.0,7.0,79,0.00,,,0.65,Wunderground v.1.15,2014-03-20 22:32:00,
2014-03-20 22:37:00,41.7,35.7,29.44,WSW,243,6.0,10.0,79,0.00,,,0.65,Wunderground v.1.15,2014-03-20 22:37:00,
2014-03-20 22:47:00,42.0,35.3,29.45,WSW,257,8.0,8.0,77,0.00,,,0.65,Wunderground v.1.15,2014-03-20 22:47:00,
2014-03-20 22:52:00,42.1,35.7,29.45,West,264,9.0,12.0,78,0.00,,,0.65,Wunderground v.1.15,2014-03-20 22:52:00,
2014-03-20 23:01:00,41.9,35.5,29.46,SW,226,7.0,11.0,78,0.00,,,0.65,Wunderground v.1.15,2014-03-20 23:01:00,
2014-03-20 23:12:00,41.5,34.2,29.46,WSW,249,7.0,8.0,75,0.00,,,0.65,Wunderground v.1.15,2014-03-20 23:12:00,
2014-03-20 23:22:00,41.5,34.2,29.46,SW,215,8.0,8.0,75,0.00,,,0.65,Wunderground v.1.15,2014-03-20 23:22:00,
2014-03-20 23:26:00,41.4,33.7,29.46,WSW,238,8.0,8.0,74,0.00,,,0.65,Wunderground v.1.15,2014-03-20 23:26:00,
2014-03-20 23:36:00,41.4,33.7,29.46,WNW,290,8.0,10.0,74,0.00,,,0.65,Wunderground v.1.15,2014-03-20 23:36:00,
2014-03-20 23:41:00,41.3,34.0,29.47,WSW,239,7.0,7.0,75,0.00,,,0.65,Wunderground v.1.15,2014-03-20 23:41:00,
2014-03-20 23:51:00,41.5,34.5,29.47,SSW,201,7.0,8.0,76,0.00,,,0.65,Wunderground v.1.15,2014-03-20 23:51:00,
2014-03-20 23:57:00,41.6,34.9,29.47,SW,228,7.0,14.0,77,0.00,,,0.65,Wunderground v.1.15,2014-03-20 23:57:00,